Regional Weather Roundup
Issued by NWS

Home | Current Version | Previous Version | Graphics & Text | Print | Product List | Glossary On
Versions: 1 2 3 4 5 6 7 8 9 10 11 12 13 14 15 16 17 18 19 20 21 22 23 24 25 26 27
000
ASUS45 KBOU 230307
RWRCO

WEATHER ROUNDUP FOR COLORADO
NATIONAL WEATHER SERVICE DENVER/BOULDER CO
900 PM MDT FRI SEP 22 2017

NOTE: "FAIR" INDICATES FEW OR NO CLOUDS BELOW 12000 FEET WITH NO
SIGNIFICANT WEATHER AND/OR OBSTRUCTIONS TO VISIBILITY.

COZ001>005-013-030-031-230400-
...NORTHWEST COLORADO...

CITY           SKY/WX    TMP DP  RH WIND       PRES   REMARKS
CRAIG          MOCLDY    57  32  38 SW6       29.89R
HAYDEN         MOCLDY    56  35  45 SW8G18    29.92R
MEEKER         MOCLDY    60  33  36 S6        29.88R
RABBIT EARS PA FAIR      41  32  70 S13G22    30.12R
STEAMBOAT SPGS FAIR      51  37  59 CALM      29.94R
WALDEN         MOCLDY    45  36  70 SE5       30.02R
$$

COZ006>008-011-230400-
...WEST CENTRAL VALLEYS...

CITY           SKY/WX    TMP DP  RH WIND       PRES   REMARKS
GRAND JUNCTION FAIR      64  30  27 SE9       29.77R
MONTROSE       MOCLDY    61  43  51 E6        29.86R
EAGLE          MOCLDY    53  40  61 E10       29.94R
RIFLE          MOCLDY    60  42  51 W5        29.84R
DELTA          NOT AVBL
NUCLA          FAIR      66  27  22 S9G17     29.88S
$$

COZ017>023-064>068-230400-
...SOUTHWEST COLORADO...

CITY           SKY/WX    TMP DP  RH WIND       PRES   REMARKS
DURANGO        FAIR      61  23  23 SW7       29.93R
CORTEZ         FAIR      59  31  34 SW7       29.87R
PAGOSA SPRINGS FAIR      56  41  58 E5        30.02R
TELLURIDE      MOCLDY    56  27  32 SE8G17    30.06R
WOLF CREEK PAS CLOUDY    36  36 100 S9        30.28F
$$

COZ009-010-012-014-032>034-037-058>063-230400-
...CENTRAL COLORADO...

CITY           SKY/WX    TMP DP  RH WIND       PRES   REMARKS
ASPEN          FAIR      51  38  60 S5        29.97R
BUENA VISTA    FAIR      58  33  39 S9        30.02R
COPPER MTN     FAIR      46  23  39 S25G38    30.20R
BERTHOUD PASS  FAIR      37  30  75 S28G39    30.26S
COTTONWOOD PAS FAIR      57  30  35 CALM      30.14R
GUNNISON       FAIR      51  36  56 CALM      30.00R
KREMMLING      FAIR      54  37  54 NE5       29.98R
LEADVILLE      FAIR      48  26  42 SE14G20   30.09R
SALIDA         FAIR      63  36  36 S9        30.09R
SUNLIGHT       FAIR      37  32  81 SW12G23   30.14R
WILKERSON PASS CLOUDY    45  30  57 SW9G17    30.24S
$$

COZ069>075-230400-
...SAN LUIS VALLEY/SANGRE DE CRISTO MOUNTAINS...

CITY           SKY/WX    TMP DP  RH WIND       PRES   REMARKS
ALAMOSA        LGT RAIN  51  47  86 NE8       30.04S
DEL NORTE      MOCLDY    49  43  81 N8        30.04F
LA VETA PASS   MOCLDY    46  34  61 S16G28    30.31R
SAGUACHE       MOCLDY    55  37  50 W18G30    30.07R
$$

COZ035-036-038>040-230400-
...NORTHERN COLORADO FRONT RANGE...

CITY           SKY/WX    TMP DP  RH WIND       PRES   REMARKS
DENVER INTL AP MOCLDY    60  40  47 NW15      29.92R
DMNS CITY PARK   N/A     60  40  47 N9G17     29.92S
AURORA         MOCLDY    57  41  53 NW6       29.94R
FRONT RANGE AP MOCLDY    59  43  55 W7G16     29.93R
ERIE MUNI ARPT FAIR      56  40  55 CALM      29.97R
BOULDER MUN AP FAIR      59  37  44 N6        29.93R
CENTENNIAL     CLOUDY    57  41  55 NW7       29.94R
BROOMFIELD     MOCLDY    59  39  47 NW12      29.94R
FORT COLLINS   FAIR      56  38  50 N10       29.93R
LONGMONT       NOT AVBL
$$

COZ041-046-047-076>085-087-088-230400-
...PIKES PEAK/PALMER DIVIDE AND SOUTHERN FOOTHILLS...

CITY           SKY/WX    TMP DP  RH WIND       PRES   REMARKS
COLO. SPRINGS  MOCLDY    72  35  25 W12       29.92R
A. F. ACADEMY  CLOUDY    62  41  44 NE12      29.95R
SCHRIEVER AFB  MOCLDY    66  32  27 W9        29.93R
CHEYENNE MTN   MOCLDY    68  32  26 S12G20    29.91S
ELLICOTT         N/A    N/A N/A N/A W7        29.91R
FALCON         MOCLDY    60  39  46 NW10      29.98R
FORT CARSON    MOCLDY    71  35  26 SW15      29.88R
LIMON            N/A    N/A N/A N/A MISG      29.86R
MONUMENT HILL  FAIR      54  41  62 NW7       30.01R
CANON CITY     CLEAR     72  41  33 SW13      29.89R
WALSENBURG     FAIR      66  39  37 SW12      29.93R
TRINIDAD       FAIR      69  38  32 S10       29.90R
$$

COZ042>045-048>051-090-091-230400-
...NORTHEAST COLORADO...

CITY           SKY/WX    TMP DP  RH WIND       PRES   REMARKS
GREELEY ARPT   FAIR      60  40  47 N10       29.89R
AKRON          FAIR      66  43  43 NE13      29.83R
BURLINGTON     FAIR      79  57  46 S24G33    29.82R
WRAY           FAIR      79  50  36 S15G23    29.76R
YUMA           FAIR      66  32  28 N10       29.79R
STERLING       FAIR      63  46  55 NE10G17   29.83R
HOLYOKE        FAIR      68  46  45 NE21      29.81S
FORT MORGAN    FAIR      63  41  45 N17G26    29.85R
$$

COZ086-089-092>099-230400-
...SOUTHEAST COLORADO...

CITY           SKY/WX    TMP DP  RH WIND       PRES   REMARKS
PUEBLO         FAIR      73  37  27 W5        29.81R
LA JUNTA       FAIR      77  37  23 S9        29.79R
LAMAR          FAIR      76  58  53 S25G37    29.78R
SPRINGFIELD      N/A     69  62  78 S17       29.89R
$$




USA.gov is the U.S. government's official web portal to all federal, state and local government web resources and services.